Location: ??????
(41.3794°N, 22.5014°E)
Time: 21:00:35
(UTC+00:00)

Cosmos 1943 Rocket - Pass Details

Date: 30 November 2020
Orbit: 811 x 844 km, 71.0° (Epoch: 19 January)

Event Time Altitude Azimuth Distance (km) Brightness Sun altitude
Rises 16:31:08 0° 334° (NNW) 3,359 5.5 -16.4°
Reaches altitude 10° 16:33:34 10° 333° (NNW) 2,427 4.7 -16.9°
Maximum altitude 16:39:07 75° 249° (WSW) 860 2.3 -17.9°
Drops below altitude 10° 16:44:41 10° 165° (SSE) 2,434 4.6 -18.9°
Sets 16:47:07 0° 163° (SSE) 3,368 5.3 -19.3°
